Custer, SD

4:35 AM MST on February 08, 2016 (GMT -0700)
Custer County

Weather History for KCUT - March, 2014

Change the Weather History Date:

Wednesday, March 26, 2014

  Actual Average Record
Temperature  
Mean Temperature 44 °F 34 °F  
Max Temperature 57 °F 44 °F 71 °F (2012)
Min Temperature 31 °F 23 °F -18 °F (1965)
Degree Days  
Heating Degree Days 21 31  
Month to date heating degree days 898 886  
Since 1 July heating degree days 6756 6721  
Cooling Degree Days 0 0  
Month to date cooling degree days 0 0  
Year to date cooling degree days 0 0  
Moisture  
Dew Point 22 °F    
Average Humidity 45    
Maximum Humidity 70    
Minimum Humidity 19    
Precipitation  
Precipitation T in 0.04 in 0.34 in (1979)
Month to date precipitation 0.86 0.78  
Year to date precipitation 2.19 1.64  
Sea Level Pressure  
Sea Level Pressure 29.42 in    
Wind  
Wind Speed 8 mph (West)    
Max Wind Speed 23 mph    
Max Gust Speed 31 mph    
Visibility 10 miles    
Events      
T = Trace of Precipitation, MM = Missing Value Source: NWS Daily Summary

Daily Weather History Graph

Daily Weather History Graph

Search for Another Location

Airport or City:

Trip Planner

Search our weather history database for the weather conditions in past years. The results will help you decide how hot, cold, wet, or windy it might be!

Date:

Astronomy

Mar. 26, 2014 Rise Set
Actual Time 6:46 AM MDT 7:14 PM MDT
Civil Twilight 6:17 AM MDT 7:43 PM MDT
Nautical Twilight 5:44 AM MDT 8:17 PM MDT
Astronomical Twilight 5:09 AM MDT 8:52 PM MDT
Moon 4:05 AM MDT (3/26) 2:47 PM MDT (3/26)
Length of Visible Light 13h 25m
Length of Day
12h 27m
Waning Crescent, 21% of the Moon is Illuminated
Mar 26
Waning Crescent
Mar 30
New
Apr 7
First Quarter
Apr 15
Full
Apr 22
Last Quarter

Hourly Weather History & Observations

Time (MDT) Temp. Windchill Dew Point Humidity Pressure Visibility Wind Dir Wind Speed Gust Speed Precip Events Conditions
12:53 AM 33.1 °F 28.7 °F 25.0 °F 72% 29.69 in 10.0 mi WSW 4.6 mph - N/A   Clear
1:53 AM 35.1 °F 29.3 °F 26.1 °F 70% 29.64 in 10.0 mi West 6.9 mph - N/A   Clear
2:53 AM 33.1 °F 27.7 °F 25.0 °F 72% 29.60 in 10.0 mi WNW 5.8 mph - N/A   Clear
3:53 AM 39.0 °F 34.0 °F 24.1 °F 55% 29.52 in 10.0 mi WSW 6.9 mph - N/A   Clear
4:53 AM 39.9 °F 35.1 °F 21.9 °F 49% 29.50 in 10.0 mi WSW 6.9 mph - N/A   Clear
5:53 AM 37.9 °F 33.5 °F 19.9 °F 48% 29.50 in 10.0 mi West 5.8 mph - N/A   Clear
6:53 AM 35.1 °F 31.0 °F 19.0 °F 52% 29.51 in 10.0 mi WNW 4.6 mph - N/A   Clear
7:53 AM 43.0 °F 41.3 °F 17.1 °F 35% 29.48 in 10.0 mi West 3.5 mph - N/A   Clear
8:53 AM 50.0 °F - 19.0 °F 29% 29.44 in 10.0 mi WSW 4.6 mph - N/A   Clear
9:53 AM 51.1 °F - 18.0 °F 27% 29.43 in 10.0 mi SW 6.9 mph - N/A   Clear
10:53 AM 54.0 °F - 16.0 °F 22% 29.40 in 10.0 mi WSW 12.7 mph 23.0 mph N/A   Clear
11:53 AM 57.0 °F - 15.1 °F 19% 29.36 in 10.0 mi West 20.7 mph 27.6 mph N/A   Clear
12:53 PM 54.0 °F - 17.1 °F 23% 29.35 in 10.0 mi West 18.4 mph 29.9 mph N/A   Clear
1:53 PM 52.0 °F - 18.0 °F 26% 29.32 in 10.0 mi West 16.1 mph 24.2 mph N/A   Partly Cloudy
2:53 PM 52.0 °F - 19.0 °F 27% 29.31 in 10.0 mi West 11.5 mph 23.0 mph N/A   Clear
3:53 PM 53.1 °F - 19.9 °F 27% 29.27 in 10.0 mi West 16.1 mph 21.9 mph N/A   Clear
4:53 PM 52.0 °F - 19.0 °F 27% 29.27 in 10.0 mi Variable 4.6 mph - N/A   Clear
5:53 PM 48.9 °F - 19.9 °F 32% 29.29 in 10.0 mi Calm Calm - N/A   Clear
6:53 PM 42.1 °F 38.4 °F 28.9 °F 60% 29.37 in 10.0 mi ENE 5.8 mph - N/A   Overcast
7:53 PM 39.9 °F 35.8 °F 28.9 °F 65% 29.35 in 10.0 mi Variable 5.8 mph - N/A   Overcast
8:53 PM 39.9 °F 35.8 °F 28.0 °F 63% 29.34 in 10.0 mi NW 5.8 mph - 0.00 in   Overcast
9:53 PM 37.9 °F 32.7 °F 26.1 °F 62% 29.37 in 10.0 mi North 6.9 mph - 0.00 in   Overcast
10:53 PM 37.0 °F 32.4 °F 23.0 °F 57% 29.36 in 10.0 mi NNW 5.8 mph - N/A   Overcast
11:53 PM 36.0 °F 31.1 °F 23.0 °F 59% 29.35 in 10.0 mi NNE 5.8 mph - N/A   Overcast